CW8398 Weather Reports


time (UTC)temp
F
wind
direction
speed
knots
gust
knots
rain 1hr
in
rain 24hr
in
rain mn
in
humidity
%
barometer
mb
20260503021803 53 9 0.0 0.0 0.00 0.00 0.00 73 1005.4
20260503021303 53 9 0.0 0.9 0.00 0.00 0.00 72 1005.4
20260503020804 53 9 0.9 0.9 0.00 0.00 0.00 71 1004.8
20260503015803 53 9 0.0 0.9 0.00 0.00 0.00 70 1004.8
20260503015305 53 9 0.0 0.9 0.00 0.00 0.00 68 1004.8
20260503014804 53 9 0.0 0.9 0.00 0.00 0.00 68 1004.8
20260503014303 53 9 0.0 0.9 0.00 0.00 0.00 67 1004.8
20260503013803 53 9 0.0 0.9 0.00 0.00 0.00 67 1004.8
20260503013303 53 9 0.0 0.9 0.00 0.00 0.00 67 1004.8
20260503012804 53 359 0.0 1.7 0.00 0.00 0.00 67 1004.8
20260503012305 53 330 0.0 0.0 0.00 0.00 0.00 66 1004.8
20260503011804 53 330 0.0 0.9 0.00 0.00 0.00 66 1004.8
20260503010804 54 55 0.0 0.0 0.00 0.00 0.00 66 1004.8
20260503010303 54 55 0.0 0.0 0.00 0.00 0.00 66 1004.8
20260503005804 54 55 0.0 0.0 0.00 0.00 0.00 66 1004.8
20260503005304 54 55 0.0 0.9 0.00 0.00 0.00 66 1004.8
20260503004804 55 319 0.0 0.0 0.00 0.00 0.00 65 1004.8
20260503004303 55 319 0.0 0.0 0.00 0.00 0.00 65 1004.8
20260503003804 55 319 0.0 0.0 0.00 0.00 0.00 64 1004.8
20260503003304 56 319 0.0 0.0 0.00 0.00 0.00 65 1004.8
20260503002305 57 319 0.0 0.9 0.00 0.00 0.00 63 1004.8
20260503000304 58 0 0.9 2.6 0.00 0.00 0.00 61 1004.8
20260502235804 59 240 0.0 0.9 0.00 0.00 0.00 59 1004.8
20260502235304 59 212 0.9 2.6 0.00 0.00 0.00 58 1004.8
20260502234803 59 202 0.0 2.6 0.00 0.00 0.00 58 1004.8
20260502234303 59 243 0.9 2.6 0.00 0.00 0.00 57 1004.8
20260502233804 59 250 0.9 2.6 0.00 0.00 0.00 57 1005.4
20260502233304 59 237 0.9 2.6 0.00 0.00 0.00 56 1005.4
20260502231803 60 241 0.9 1.7 0.00 0.00 0.00 55 1005.4
20260502231303 60 267 0.9 2.6 0.00 0.00 0.00 55 1005.4
20260502230304 60 226 0.0 1.7 0.00 0.00 0.00 55 1005.4
20260502225804 60 222 0.9 2.6 0.00 0.00 0.00 55 1005.4
20260502225304 61 180 0.9 4.3 0.00 0.00 0.00 55 1005.4
20260502224803 61 172 0.9 1.7 0.00 0.00 0.00 55 1005.4
20260502224304 61 164 0.9 2.6 0.00 0.00 0.00 55 1005.4
20260502223804 61 169 0.0 2.6 0.00 0.00 0.00 55 1005.4
20260502223304 61 167 0.9 4.3 0.00 0.00 0.00 55 1005.4
20260502222803 61 193 0.9 4.3 0.00 0.00 0.00 55 1005.4
20260502220816 61 208 0.9 4.3 0.00 0.00 0.00 54 1005.4
20260502220304 62 199 0.9 2.6 0.00 0.00 0.00 54 1005.4
20260502215802 62 157 0.9 7.0 0.00 0.00 0.00 54 1005.4
20260502213301 61 216 1.7 5.2 0.00 0.00 0.00 57 1005.4
20260502212802 60 183 0.9 4.3 0.00 0.00 0.00 57 1005.4
20260502211802 59 199 1.7 6.1 0.00 0.00 0.00 59 1005.4
20260502211302 58 249 1.7 4.3 0.00 0.00 0.00 60 1005.4
20260502210802 58 239 2.6 10.4 0.00 0.00 0.00 62 1005.4
20260502210302 57 171 1.7 4.3 0.00 0.00 0.00 64 1005.1
20260502205802 56 204 2.6 5.2 0.00 0.00 0.00 66 1005.1
20260502205305 55 194 1.7 5.2 0.00 0.00 0.00 67 1005.1
20260502204302 54 186 1.7 5.2 0.00 0.00 0.00 70 1005.1
20260502203802 53 165 1.7 2.6 0.00 0.00 0.00 71 1005.1
20260502203301 53 163 1.7 2.6 0.00 0.00 0.00 71 1005.1
20260502202304 53 165 2.6 2.6 0.00 0.00 0.00 71 1005.1
20260502201801 53 163 1.7 2.6 0.00 0.00 0.00 72 1005.1
20260502201302 53 159 2.6 4.3 0.00 0.00 0.00 72 1005.1
20260502200802 53 159 2.6 4.3 0.00 0.00 0.00 72 1005.1
20260502200302 53 161 2.6 4.3 0.00 0.00 0.00 72 1005.1
20260502195802 53 159 2.6 4.3 0.00 0.00 0.00 71 1005.1
20260502194802 53 161 4.3 5.2 0.00 0.00 0.00 71 1005.1
20260502194302 54 159 4.3 5.2 0.00 0.00 0.00 70 1005.1
20260502193802 54 155 4.3 5.2 0.00 0.00 0.00 69 1005.1
20260502193302 54 163 2.6 5.2 0.00 0.00 0.00 68 1005.1
20260502192802 55 165 4.3 4.3 0.00 0.00 0.00 68 1005.1
20260502192305 55 157 3.5 4.3 0.00 0.00 0.00 67 1005.1
20260502190802 56 160 2.6 4.3 0.00 0.00 0.00 65 1005.1
20260502190302 56 163 4.3 4.3 0.00 0.00 0.00 65 1005.1
20260502185802 57 161 4.3 6.1 0.00 0.00 0.00 64 1005.1
20260502185305 57 159 3.5 5.2 0.00 0.00 0.00 64 1005.1
20260502184302 58 160 4.3 6.1 0.00 0.00 0.00 63 1005.1
20260502183802 58 159 2.6 4.3 0.00 0.00 0.00 62 1005.0
20260502183302 58 160 2.6 4.3 0.00 0.00 0.00 62 1005.0
20260502182802 59 166 2.6 4.3 0.00 0.00 0.00 61 1005.0
20260502182304 59 170 2.6 4.3 0.00 0.00 0.00 61 1005.0
20260502181802 59 169 2.6 6.1 0.00 0.00 0.00 60 1005.0
20260502180802 60 160 2.6 7.0 0.00 0.00 0.00 59 1005.0
20260502180302 60 175 2.6 6.1 0.00 0.00 0.00 59 1005.0
20260502170302 63 173 2.6 5.2 0.00 0.00 0.00 54 1005.1
20260502164302 64 172 2.6 6.1 0.00 0.00 0.00 53 1006.1
20260502163802 64 170 2.6 6.1 0.00 0.00 0.00 52 1006.1
20260502163302 65 158 3.5 6.1 0.00 0.00 0.00 51 1006.1
20260502162802 65 170 3.5 6.1 0.00 0.00 0.00 51 1006.1
20260502162304 66 158 2.6 7.0 0.00 0.00 0.00 50 1006.1
20260502161802 66 167 3.5 7.0 0.00 0.00 0.00 49 1006.1
20260502161302 67 164 1.7 4.3 0.00 0.00 0.00 48 1006.1
20260502160802 67 169 2.6 6.1 0.00 0.00 0.00 48 1006.1
20260502160302 67 168 1.7 6.1 0.00 0.00 0.00 48 1006.1
20260502152305 67 170 4.3 8.7 0.00 0.00 0.00 47 1006.6
20260502151802 67 157 5.2 10.4 0.00 0.00 0.00 47 1006.6
20260502151302 67 178 4.3 7.8 0.00 0.00 0.00 46 1006.6
20260502150803 67 167 5.2 10.4 0.00 0.00 0.00 47 1006.6
20260502150302 67 160 7.0 11.3 0.00 0.00 0.00 45 1007.4
20260502130302 71 177 4.3 12.2 0.00 0.00 0.00 41 1008.1
20260502123802 74 212 6.1 13.9 0.00 0.00 0.00 33 1008.5
20260502123302 74 206 5.2 13.9 0.00 0.00 0.00 33 1008.5
20260502122802 74 237 4.3 13.0 0.00 0.00 0.00 33 1008.5
20260502122305 75 203 1.7 12.2 0.00 0.00 0.00 34 1008.5
20260502121803 75 233 4.3 12.2 0.00 0.00 0.00 34 1008.5
20260502120802 74 184 3.5 12.2 0.00 0.00 0.00 34 1008.5
20260502120303 74 192 2.6 13.0 0.00 0.00 0.00 34 1008.5
20260502115305 74 197 4.3 10.4 0.00 0.00 0.00 34 1009.6
20260502114802 74 193 5.2 10.4 0.00 0.00 0.00 34 1009.6
20260502114303 73 262 5.2 15.6 0.00 0.00 0.00 33 1009.6
20260502113802 74 165 2.6 12.2 0.00 0.00 0.00 34 1009.6
20260502113302 74 208 4.3 12.2 0.00 0.00 0.00 34 1009.6
20260502112802 73 201 5.2 13.0 0.00 0.00 0.00 34 1009.6
20260502112305 73 266 5.2 11.3 0.00 0.00 0.00 34 1009.6
20260502111302 73 245 4.3 11.3 0.00 0.00 0.00 34 1009.6
20260502110302 73 208 5.2 10.4 0.00 0.00 0.00 34 1009.6
20260502105802 72 270 4.3 10.4 0.00 0.00 0.00 34 1009.6
20260502105305 72 246 6.1 12.2 0.00 0.00 0.00 34 1009.6
20260502104803 72 255 4.3 10.4 0.00 0.00 0.00 34 1009.6
20260502103803 71 286 5.2 17.4 0.00 0.00 0.00 33 1009.6
20260502102802 72 203 2.6 13.0 0.00 0.00 0.00 34 1009.9
20260502101803 70 239 4.3 12.2 0.00 0.00 0.00 34 1009.9
20260502101302 70 232 4.3 13.9 0.00 0.00 0.00 34 1009.9
20260502100802 70 215 5.2 13.9 0.00 0.00 0.00 35 1009.9
20260502091302 68 235 4.3 13.0 0.00 0.00 0.00 35 1010.8
20260502090803 67 207 3.5 13.9 0.00 0.00 0.00 35 1010.8
20260502090303 67 216 6.1 15.6 0.00 0.00 0.00 35 1010.8
20260502071302 61 222 5.2 12.2 0.00 0.00 0.00 42 1011.8
20260502070803 61 203 2.6 7.8 0.00 0.00 0.00 44 1011.8
20260502070303 61 181 3.5 11.3 0.00 0.00 0.00 44 1011.8
20260502065802 60 219 4.3 12.2 0.00 0.00 0.00 44 1011.8
20260502064802 60 174 2.6 10.4 0.00 0.00 0.00 46 1011.8
20260502064303 60 240 2.6 10.4 0.00 0.00 0.00 46 1011.8
20260502063802 59 183 2.6 8.7 0.00 0.00 0.00 47 1011.8
20260502063303 59 206 4.3 12.2 0.00 0.00 0.00 47 1011.8
20260502062305 58 220 1.7 10.4 0.00 0.00 0.00 47 1011.8
20260502061303 58 244 2.6 7.8 0.00 0.00 0.00 49 1011.9
20260502060802 58 245 3.5 7.8 0.00 0.00 0.00 48 1011.9
20260502055305 57 243 4.3 10.4 0.00 0.00 0.00 49 1012.0
20260502054303 57 219 2.6 10.4 0.00 0.00 0.00 50 1012.0
20260502053802 57 227 3.5 10.4 0.00 0.00 0.00 50 1012.0
20260502053303 57 195 3.5 7.8 0.00 0.00 0.00 50 1012.0
20260502052306 56 247 4.3 10.4 0.00 0.00 0.00 50 1012.0
20260502051303 56 191 2.6 8.7 0.00 0.00 0.00 51 1012.2
20260502050802 56 257 3.5 8.7 0.00 0.00 0.00 51 1012.2
20260502045802 56 227 5.2 10.4 0.00 0.00 0.00 52 1012.2
20260502044802 56 277 4.3 7.8 0.00 0.00 0.00 52 1012.2
20260502043803 55 252 2.6 8.7 0.00 0.00 0.00 53 1012.2
20260502043302 55 11 1.7 8.7 0.00 0.00 0.00 53 1012.2
20260502042305 55 176 1.7 4.3 0.00 0.00 0.00 53 1012.2
20260502041803 55 219 1.7 7.8 0.00 0.00 0.00 53 1012.2
20260502041303 55 253 2.6 7.0 0.00 0.00 0.00 53 1012.2
20260502040803 55 233 0.9 7.8 0.00 0.00 0.00 53 1012.3
20260502035803 55 212 3.5 8.7 0.00 0.00 0.00 53 1012.3
20260502035306 55 194 4.3 7.0 0.00 0.00 0.00 54 1012.3
20260502034803 54 143 1.7 4.3 0.00 0.00 0.00 54 1012.3
20260502034303 54 195 1.7 11.3 0.00 0.00 0.00 54 1012.3
20260502033802 54 270 2.6 7.0 0.00 0.00 0.00 54 1012.4
20260502033303 54 250 2.6 6.1 0.00 0.00 0.00 55 1012.4
20260502032305 54 169 1.7 7.8 0.00 0.00 0.00 55 1012.5
20260502031802 54 231 0.9 2.6 0.00 0.00 0.00 54 1012.6
20260502030802 54 243 1.7 7.0 0.00 0.00 0.00 55 1012.6
20260502030302 54 241 1.7 7.0 0.00 0.00 0.00 55 1012.6
20260502025802 54 281 1.7 4.3 0.00 0.00 0.00 55 1012.8
20260502025306 54 236 0.9 4.3 0.00 0.00 0.00 54 1012.8
20260502024803 54 258 1.7 6.1 0.00 0.00 0.00 54 1012.8
20260502024303 55 262 0.9 7.0 0.00 0.00 0.00 54 1012.8
20260502023803 55 268 2.6 7.0 0.00 0.00 0.00 54 1012.8
20260502022803 55 270 1.7 6.1 0.00 0.00 0.00 54 1012.9
20260502022306 55 276 1.7 8.7 0.00 0.00 0.00 54 1012.9